User: anonymous   Login
Location: Unspecified
(0.0000°N, 0.0000°E)
Time: 00:14:31
(UTC+00:00)
Language:

Kopernikus - Orbit

View from above orbital plane
View from above orbital plane
View from above satellite
View from above satellite

Ground track
Ground track

The orbit data is extracted from the following two-line orbital elements,

1 20041U 89041B   18111.49885095 -.00000101 +00000-0 +00000-0 0  9992
2 20041 014.9035 012.1807 0013669 251.3606 108.4534 01.00653695094517
Epoch (UTC): 21 April 2018 11:58:20
Eccentricity: 0.0013669
inclination: 14.9035°
perigee height: 35622 km
apogee height: 35737 km
right ascension of ascending node: 12.1807°
argument of perigee: 251.3606°
revolutions per day: 1.00653695
mean anomaly at epoch: 108.4534°
orbit number at epoch: 9451

The dashed part of the orbit path shows where the satellite is in the earth's shadow,  

DLR